Wind_Speed
6 8 8 11 15 17 16 14 14 14 11 9 7 7 6 4 3 5 5 5 6 7 9 11 12 10 9 11 13 11 11 9 9 11 11 10 12 13 13 13 12 8 9
8 9 9 13 14 17 16 14 13 13 11 10 8 7 5 3 3 5 5 5 7 9 12 12 11 7 7 10 11 9 8 8 9 10 10 12 12 12 10 9 8 10 10
10 6 12 14 15 17 16 14 13 13 11 11 9 8 5 3 3 6 6 6 6 10 11 11 9 5 8 10 8 7 8 9 12 13 12 8 12 13 12 11 10 11 10
8 5 11 15 14 16 17 15 14 12 11 12 10 8 7 5 5 7 8 6 5 10 8 7 6 7 9 10 9 9 11 13 16 14 9 10 8 11 9 7 6 5 4
4 6 9 13 15 15 17 16 15 13 13 12 10 8 7 7 6 8 10 10 6 9 11 10 6 7 10 10 10 10 12 12 12 9 9 7 2 5 5 4 4 4 4
5 4 12 13 15 15 14 16 15 14 13 12 10 9 8 8 8 11 11 12 7 5 8 7 9 9 9 9 9 9 9 10 9 5 4 10 6 5 5 5 4 5 4
6 8 8 13 17 17 16 15 15 14 15 14 12 11 10 9 9 12 11 13 10 5 7 9 10 9 9 8 7 7 8 8 8 4 5 4 3 4 4 4 4 4 4
5 8 7 10 17 18 18 17 15 15 15 15 13 12 10 10 11 12 12 12 11 6 7 9 10 9 8 7 6 6 6 6 7 4 4 4 4 4 3 3 3 3 4
3 6 9 7 15 16 18 19 17 17 16 15 13 13 11 11 13 14 13 13 13 8 8 10 10 9 8 7 6 6 6 7 8 4 4 2 3 3 2 1 1 2 3
5 5 8 8 9 12 15 18 19 19 18 17 16 15 12 12 14 15 13 14 14 10 9 11 12 10 9 8 7 6 6 6 5 5 4 8 5 3 2 1 0 1 2
10 8 9 12 13 11 12 16 20 20 20 19 18 17 16 15 15 16 16 17 17 13 11 12 13 12 10 9 9 7 6 5 4 3 4 7 5 5 4 3 3 2 2
16 15 12 13 15 18 15 14 18 21 22 20 19 17 19 13 14 13 16 19 18 16 14 13 15 14 12 9 11 10 8 4 7 6 8 7 7 7 6 5 5 4 4
23 22 19 17 17 19 20 21 17 16 20 20 18 17 15 15 17 16 20 19 21 20 18 17 18 17 15 10 9 9 8 8 7 7 10 8 8 8 8 8 7 7 6
24 26 27 24 22 20 20 23 23 18 21 19 21 22 21 19 19 18 19 21 23 22 17 18 18 20 17 14 13 11 10 9 8 8 9 11 10 9 10 10 10 9 8
24 26 28 30 28 25 22 21 25 24 23 21 22 22 21 23 22 19 19 20 23 20 18 17 17 17 17 17 15 13 12 11 10 9 9 12 11 11 11 11 10 9 7
22 24 25 28 31 30 28 23 26 27 25 26 25 25 24 22 22 22 21 22 21 21 20 22 17 18 18 16 15 15 14 13 12 12 11 12 13 14 13 13 11 11 11
22 23 24 26 29 32 33 30 26 31 30 30 31 28 28 27 24 24 25 22 24 23 22 22 19 17 17 17 17 15 15 14 14 14 14 14 14 15 16 15 14 13 13
27 28 28 26 26 27 33 34 30 29 33 33 35 33 30 30 30 28 26 28 25 25 26 24 21 24 21 18 17 17 17 16 15 15 15 15 15 15 16 18 18 17 17
26 27 28 28 28 26 28 31 35 25 32 33 29 29 29 30 28 29 31 27 24 26 28 26 22 22 20 20 21 19 18 20 19 17 18 17 18 19 18 17 20 20 21
24 26 26 26 25 23 23 28 28 30 33 34 33 32 31 31 30 30 29 30 26 25 28 28 24 24 23 21 21 23 26 25 24 25 25 21 22 22 22 22 23 24 23
23 24 25 26 25 23 22 25 28 29 28 34 37 34 33 34 33 32 32 28 27 31 31 28 25 25 28 27 23 28 31 30 31 34 33 33 30 28 25 24 23 24 26
24 23 24 25 25 26 25 22 27 28 28 31 35 38 32 31 32 32 32 31 30 29 29 30 28 28 27 25 29 23 21 23 36 41 39 37 36 32 26 27 27 26 27
23 23 22 24 25 25 26 24 23 25 25 29 30 36 40 32 30 32 32 31 29 28 25 32 31 33 32 30 31 24 12 17 18 20 24 30 32 31 34 28 29 29 28
25 21 22 21 23 23 23 25 25 27 27 28 28 31 35 35 31 31 32 33 31 29 29 32 31 31 31 31 26 33 35 24 10 13 22 24 25 25 29 27 27 27 28
27 27 19 20 20 22 21 24 24 27 28 23 26 27 30 35 34 32 32 33 32 32 30 30 30 28 32 33 33 32 33 37 40 30 24 19 23 30 26 26 26 23 23
20 22 19 18 18 18 21 21 24 25 24 26 26 25 27 31 35 33 33 32 31 32 32 31 31 32 36 36 37 35 35 33 33 34 32 34 34 29 32 31 25 22 22
Wind_Direction
16 288 203 192 185 179 179 184 184 180 178 178 176 164 155 151 144 148 133 119 107 110 133 119 112 117 121 132 119 127 124 102 101 110 103 96 109 118 113 100 79 80 77
323 276 209 198 195 185 184 187 193 191 191 189 191 179 167 161 161 159 139 115 93 103 123 120 135 150 141 140 139 142 129 110 107 103 95 96 103 112 113 102 96 88 86
330 226 198 199 199 190 191 192 195 195 198 198 194 188 190 195 190 170 158 146 112 126 125 139 160 181 155 147 136 137 143 121 107 103 95 104 102 104 105 98 92 95 93
332 203 189 201 199 194 196 196 199 196 203 201 204 206 207 209 203 184 170 171 141 138 140 149 154 128 142 147 141 130 132 128 114 83 75 70 91 110 112 106 104 105 83
66 194 191 207 198 201 198 200 203 203 204 205 209 218 214 213 205 189 179 184 160 159 167 178 173 146 142 142 139 132 132 133 124 94 123 114 98 134 125 118 107 84 56
136 199 208 218 210 202 203 205 208 210 209 212 221 221 222 217 208 186 185 191 184 174 173 169 171 160 149 146 144 143 140 139 106 106 148 136 186 127 117 101 84 72 61
192 192 210 232 217 207 211 211 213 216 215 219 226 225 223 216 207 192 198 198 197 183 173 171 167 163 156 153 152 154 155 153 113 130 122 125 155 132 115 103 84 67 51
222 214 201 241 221 216 216 220 223 222 221 223 224 224 220 216 212 204 207 204 203 201 192 179 179 175 174 173 170 162 163 162 108 140 142 191 158 144 122 94 72 59 46
241 222 199 208 227 225 223 224 226 227 227 226 223 224 225 220 216 214 216 209 208 207 206 191 190 185 181 182 181 178 170 163 133 202 140 262 186 169 143 105 72 50 40
310 247 229 200 216 229 231 228 225 226 227 227 229 230 230 224 219 218 220 220 214 219 212 202 199 197 195 194 189 185 180 170 115 207 164 225 219 208 196 206 280 7 23
285 268 238 226 201 216 236 236 231 231 229 230 230 232 228 224 226 223 216 219 216 222 217 212 208 208 208 206 207 201 191 170 209 206 210 249 231 235 232 237 256 276 303
273 269 257 246 228 219 214 231 237 230 231 229 228 230 227 224 224 237 229 224 221 223 222 221 216 214 215 224 221 214 205 202 213 221 232 243 241 245 243 244 252 261 269
274 264 261 256 246 234 230 218 220 234 236 226 220 226 229 215 225 227 227 220 216 218 222 223 220 217 216 197 232 233 222 222 230 233 243 250 250 253 253 251 254 259 264
270 264 258 258 253 245 240 233 219 218 233 228 221 220 219 217 221 222 234 223 216 218 218 224 221 221 214 212 214 217 229 227 233 237 252 263 255 254 255 257 257 263 267
274 268 263 256 256 252 247 241 231 215 219 222 221 216 215 218 219 220 231 233 220 214 205 217 209 219 214 218 219 223 224 235 238 245 253 271 261 256 256 257 257 254 259
274 273 270 264 252 250 247 243 237 228 218 221 220 221 219 216 226 222 221 231 230 218 207 211 215 212 218 220 224 227 229 230 234 238 243 260 266 256 258 257 254 254 259
266 268 268 267 259 247 244 244 244 234 224 220 221 223 217 214 215 225 221 227 230 227 219 211 216 217 218 220 224 227 235 235 238 241 242 246 261 265 254 255 254 253 260
266 266 264 259 260 252 242 240 241 244 230 224 223 225 228 223 218 212 224 220 224 223 222 213 209 209 214 220 229 231 229 237 238 241 248 248 253 257 263 253 253 256 259
270 264 260 259 255 256 247 241 238 239 239 227 222 220 229 229 230 223 226 225 223 228 228 225 222 220 218 219 224 229 231 236 241 240 243 244 251 251 250 257 258 257 259
275 263 254 251 250 247 245 238 237 233 241 230 224 230 232 230 226 226 225 225 223 224 228 225 224 226 231 230 233 245 250 248 245 250 249 245 249 255 264 264 260 261 259
283 265 255 246 244 241 239 235 229 230 232 233 227 230 233 231 228 225 226 225 228 231 236 233 232 230 236 239 244 247 247 249 252 256 258 254 254 257 256 264 262 259 262
284 269 258 248 243 238 240 236 232 232 237 233 232 225 225 229 229 228 228 227 222 227 240 242 239 238 241 239 235 247 252 263 259 254 253 257 256 256 255 264 264 261 258
284 272 262 251 245 238 235 236 229 236 237 239 232 229 222 218 226 228 226 224 222 224 227 242 241 237 242 241 249 229 236 240 253 261 260 249 256 249 260 257 255 258 260
279 269 261 249 242 241 235 233 229 226 234 239 235 233 228 221 221 228 223 224 225 230 235 233 240 243 240 237 238 247 241 241 261 264 246 253 243 241 250 247 261 258 253
276 256 257 254 245 236 234 230 226 227 231 230 231 234 232 226 224 220 223 226 229 234 236 236 239 242 240 246 246 242 252 257 249 252 256 248 250 248 252 254 264 246 247
277 261 254 249 250 241 232 229 225 226 234 232 230 233 233 230 232 226 226 231 238 244 244 245 248 247 247 251 252 247 248 246 246 247 245 246 249 257 261 258 257 243 249
Height
1507 1504 1506 1508 1509 1510 1512 1514 1517 1518 1519 1521 1522 1523 1524 1525 1525 1526 1526 1527 1527 1527 1529 1531 1532 1533 1533 1533 1534 1534 1535 1535 1536 1537 1537 1537 1538 1538 1539 1539 1541 1539 1539
1506 1505 1505 1508 1510 1512 1514 1515 1518 1519 1520 1522 1523 1524 1525 1526 1526 1527 1527 1528 1528 1529 1531 1532 1533 1534 1535 1535 1536 1536 1536 1537 1538 1539 1540 1540 1540 1541 1541 1542 1542 1541 1541
1504 1503 1504 1507 1510 1512 1514 1516 1518 1520 1522 1522 1524 1524 1525 1527 1527 1528 1529 1530 1530 1532 1533 1534 1535 1535 1535 1536 1537 1537 1538 1539 1541 1542 1542 1542 1542 1543 1544 1544 1543 1543 1543
1504 1504 1504 1506 1510 1512 1514 1516 1518 1520 1521 1523 1524 1524 1526 1527 1528 1529 1531 1532 1532 1533 1534 1535 1536 1536 1537 1538 1538 1539 1539 1541 1543 1544 1545 1545 1545 1544 1545 1545 1545 1545 1544
1504 1506 1506 1507 1509 1512 1514 1516 1518 1520 1522 1524 1524 1525 1526 1527 1528 1530 1531 1533 1534 1535 1535 1536 1537 1538 1538 1539 1540 1541 1541 1543 1545 1546 1548 1548 1547 1545 1546 1546 1546 1546 1545
1504 1506 1506 1507 1509 1512 1514 1516 1518 1519 1521 1523 1525 1526 1526 1527 1528 1530 1531 1533 1535 1536 1537 1537 1538 1539 1540 1541 1541 1542 1543 1545 1546 1548 1547 1549 1547 1547 1547 1547 1547 1547 1547
1504 1505 1507 1507 1509 1511 1513 1516 1518 1519 1521 1523 1524 1525 1526 1527 1528 1530 1532 1533 1535 1537 1538 1539 1539 1540 1541 1542 1543 1543 1544 1545 1546 1549 1549 1549 1548 1548 1548 1548 1548 1548 1548
1504 1505 1506 1507 1509 1511 1512 1515 1517 1519 1521 1522 1524 1525 1526 1527 1529 1530 1532 1533 1535 1536 1538 1539 1540 1541 1542 1542 1543 1544 1545 1546 1547 1549 1550 1550 1549 1549 1549 1550 1550 1549 1549
1504 1504 1505 1507 1509 1510 1511 1514 1515 1518 1520 1521 1523 1524 1525 1527 1528 1530 1532 1533 1535 1536 1538 1539 1540 1541 1542 1543 1544 1544 1545 1546 1547 1550 1550 1549 1549 1550 1550 1550 1550 1550 1550
1504 1505 1505 1506 1508 1509 1510 1512 1514 1516 1518 1519 1521 1523 1525 1526 1527 1529 1530 1533 1535 1536 1537 1539 1540 1541 1542 1543 1544 1545 1546 1547 1548 1548 1550 1548 1549 1550 1550 1550 1550 1550 1550
1504 1503 1504 1505 1506 1508 1509 1510 1512 1514 1516 1517 1519 1521 1522 1524 1526 1527 1529 1531 1533 1536 1536 1538 1539 1541 1542 1543 1544 1544 1545 1546 1549 1549 1550 1548 1549 1549 1549 1549 1549 1549 1549
1502 1502 1502 1503 1503 1505 1507 1509 1509 1511 1513 1515 1517 1519 1520 1523 1525 1526 1527 1529 1532 1534 1536 1536 1538 1539 1541 1542 1543 1543 1545 1547 1548 1548 1548 1547 1548 1548 1548 1548 1548 1548 1548
1498 1499 1500 1501 1501 1502 1503 1505 1508 1509 1510 1512 1515 1518 1519 1522 1524 1524 1525 1526 1528 1531 1532 1534 1535 1537 1539 1542 1543 1542 1543 1547 1547 1547 1546 1546 1547 1547 1547 1547 1547 1547 1547
1493 1493 1495 1496 1497 1498 1499 1501 1504 1507 1507 1509 1512 1515 1517 1520 1521 1522 1522 1523 1525 1527 1529 1530 1532 1534 1537 1540 1541 1542 1544 1544 1545 1546 1546 1545 1545 1545 1545 1545 1545 1545 1546
1487 1488 1489 1491 1493 1494 1495 1496 1498 1501 1504 1506 1507 1509 1512 1515 1517 1520 1519 1520 1522 1524 1527 1529 1530 1532 1534 1537 1538 1540 1541 1542 1543 1544 1544 1543 1543 1543 1543 1543 1543 1543 1544
1483 1483 1483 1484 1486 1488 1490 1492 1492 1495 1499 1501 1503 1504 1507 1510 1513 1516 1518 1517 1520 1521 1524 1527 1528 1530 1532 1533 1535 1537 1538 1539 1540 1541 1542 1541 1540 1541 1541 1542 1542 1542 1542
1479 1479 1478 1477 1478 1480 1483 1485 1487 1488 1492 1494 1497 1499 1501 1505 1509 1512 1514 1515 1516 1519 1520 1523 1525 1527 1529 1531 1532 1533 1534 1536 1536 1537 1537 1537 1537 1537 1537 1538 1539 1539 1540
1472 1471 1471 1472 1471 1473 1475 1478 1481 1482 1484 1487 1490 1493 1495 1498 1502 1506 1509 1511 1513 1515 1516 1519 1521 1523 1524 1526 1528 1529 1530 1531 1532 1533 1535 1535 1534 1534 1534 1535 1535 1536 1537
1467 1465 1465 1465 1465 1466 1469 1471 1473 1476 1477 1480 1484 1487 1490 1492 1496 1499 1502 1506 1510 1511 1513 1514 1517 1518 1520 1522 1524 1525 1526 1526 1527 1528 1529 1530 1531 1530 1530 1531 1531 1531 1532
1459 1458 1458 1459 1459 1461 1462 1465 1467 1469 1470 1473 1477 1481 1484 1487 1488 1491 1494 1500 1505 1506 1507 1510 1512 1514 1516 1517 1519 1519 1521 1521 1522 1522 1522 1524 1523 1524 1523 1525 1526 1526 1527
1453 1451 1451 1452 1453 1455 1456 1458 1461 1462 1464 1466 1470 1475 1478 1481 1483 1485 1489 1492 1497 1499 1502 1505 1507 1509 1511 1513 1516 1514 1515 1515 1516 1515 1516 1517 1517 1517 1518 1518 1520 1520 1521
1447 1446 1445 1445 1447 1448 1450 1452 1455 1458 1458 1460 1463 1467 1471 1475 1477 1480 1483 1487 1488 1492 1496 1499 1502 1503 1505 1507 1509 1512 1511 1511 1507 1508 1509 1510 1510 1511 1511 1512 1513 1514 1514
1442 1441 1440 1440 1440 1441 1444 1445 1449 1453 1454 1454 1457 1459 1464 1468 1472 1475 1478 1481 1484 1486 1487 1493 1496 1497 1498 1501 1503 1507 1507 1503 1503 1503 1501 1503 1505 1505 1504 1505 1506 1507 1508
1435 1434 1434 1433 1434 1436 1438 1439 1442 1445 1447 1450 1453 1455 1458 1462 1466 1469 1472 1476 1478 1481 1484 1485 1490 1493 1494 1495 1497 1496 1498 1500 1500 1498 1498 1498 1499 1500 1497 1498 1498 1499 1502
1427 1426 1427 1428 1428 1429 1432 1434 1436 1439 1441 1446 1448 1450 1452 1457 1460 1462 1466 1470 1472 1475 1479 1481 1484 1485 1488 1489 1490 1492 1490 1491 1494 1495 1493 1493 1492 1493 1493 1492 1490 1493 1495
1419 1420 1421 1423 1423 1424 1426 1429 1431 1434 1438 1440 1443 1445 1449 1451 1454 1457 1461 1465 1467 1469 1472 1475 1477 1478 1481 1483 1484 1484 1484 1484 1485 1486 1486 1487 1487 1488 1488 1487 1485 1486 1491